Other Public Products
Issued by NWS Charleston, SC

Home | Current Version | Previous Version | Text Only | Print | Product List | Glossary On
Versions: 1 2 3 4 5 6 7 8 9 10 11 12 13 14 15 16 17 18 19 20 21 22 23 24 25 26 27 28 29 30 31 32 33 34 35 36 37 38 39 40 41 42 43 44 45 46 47 48 49 50
000
FPUS82 KCHS 202027
OPUCHS

TEST...KCHS/KSAV Gateway Observations...TEST
National Weather Service Charleston SC
400 PM EDT SAT APR 20 2019

NOTE: "fair" indicates few or no clouds below 12,000 feet with no
significant weather and/or obstructions to visibility.

SCZ050-WAZ558-NCZ071-TXZ119-213-PAZ071-DCZ001-FLZ074-172-MI076-
NYZ176-178-MAZ016-IL014-TNZ027-NJZ106-GAZ044-MD014-202100-

...Gateway Observations for Charleston International...

CITY           SKY/WX    TMP DP  RH WIND       PRES   REMARKS
Chas Airport   FAIR      62  38  40 W15G29    29.82R
Seattle        CLOUDY    55  43  63 NE7       30.07S
Charlotte      PTSUNNY   52  45  77 SW14      29.75R
Dallas DFW     SUNNY     79  44  28 S14       30.00F
Dallas Love    SUNNY     78  42  27 S10       30.01F
Philladelphia  PTSUNNY   71  49  45 S21G26    29.69R
Wash National  PTSUNNY   73  45  36 S22G28    29.65R
Baltimore      PTSUNNY   73  46  38 S15G23    29.63S
Miami          FAIR      82  52  35 W10G18    29.96F
Detroit        LGT RAIN  43  38  82 N13       29.70R
Newark         CLOUDY    61  56  83 SE10      29.73S
Laguardia      CLOUDY    59  55  87 S20G31    29.76S
J F K          CLOUDY    57  56  96 S23G31    29.79R
Boston Logan   LGT RAIN  69  64  84 S20       29.87S
Ft. Lauderdale FAIR      81  53  37 W8        29.94F
Chicago O`Hare FAIR      63  11  13 N17G26    29.80F
Chicago Midway FAIR      62   7  11 N23G30    29.80F
Houston Bush   SUNNY     77  44  30 SW9       30.07F
Houston Hobby  FAIR      77  43  29 S9        30.07F
Nashville      CLOUDY    47  41  80 NW6       29.83R
Atlanta        CLOUDY    48  40  73 W14G22    29.83R

$$

GAZ044-118-TXZ119-213-NCZ071-DCZ001-MDZ014-506-PAZ021-071-NJZ106-
NYZ176-178-MAZ106-OHZ011-021-055-MIZ076-KYZ091-ILZ014-INZ047-
MNZ060-ONZ431-202100-

...Gateway Observations for Savannah International...

CITY           SKY/WX    TMP DP  RH WIND       PRES   REMARKS
Savannah Arpt  PTSUNNY   66  40  38 W16       29.83F
Atlanta        CLOUDY    48  40  73 W14G22    29.83R
Charlotte      PTSUNNY   52  45  77 SW14      29.75R
Dallas DFW     SUNNY     79  44  28 S14       30.00F
Houston Bush   SUNNY     77  44  30 SW9       30.07F
Wash National  PTSUNNY   73  45  36 S22G28    29.65R
Wash Dulles    PTSUNNY   71  45  39 S16G24    29.63S
Baltimore      PTSUNNY   73  46  38 S15G23    29.63S
Philadelphia   PTSUNNY   71  49  45 S21G26    29.69R
Newark         CLOUDY    61  56  83 SE10      29.73S
Laguardia      CLOUDY    59  55  87 S20G31    29.76S
J F K          CLOUDY    57  56  96 S23G31    29.79R
Boston         LGT RAIN  69  64  84 S20       29.87S
Pittsburg      FAIR      65  46  50 W14G25    29.53F
Akron          PTSUNNY   60  46  59 W8        29.59F
Cleveland      CLOUDY    48  43  82 NW14      29.66R
Cincinnati     CLOUDY    43  38  82 NW14      29.70R
Columbus         N/A    N/A N/A N/A MISG        N/A
Detroit        LGT RAIN  43  38  82 N13       29.70R
Chicago O`Hare FAIR      63  11  13 N17G26    29.80F
Minneapolis    FAIR      73  38  27 S14       29.73F
Indianapolis   CLOUDY    44  40  85 NE15      29.75R
Toronto Canada LGT RAIN  45  43  93 S6        29.67  FOG

$$



USA.gov is the U.S. government's official web portal to all federal, state and local government web resources and services.